Location: Gradaro
(45.0833°N, 10.8833°E)
Time: 14:17:16
(UTC+00:00)

MOS 1 Rocket - Pass Details

Date: 29 November 2020
Orbit: 613 x 831 km, 97.4° (Epoch: 24 January)

Event Time Altitude Azimuth Distance (km) Brightness Sun altitude
Rises 05:08:23 0° 169° (S) 3,050 7.0 -14.5°
Reaches altitude 10° 05:10:34 10° 171° (S) 2,170 6.2 -14.1°
Maximum altitude 05:15:21 79° 258° (WSW) 759 3.4 -13.3°
Drops below altitude 10° 05:20:30 10° 345° (NNW) 2,327 5.7 -12.4°
Sets 05:22:54 0° 347° (NNW) 3,289 6.5 -12.0°
